Regional Weather Roundup
Issued by NWS

Home | Current Version | Previous Version | Graphics & Text | Print | Product List | Glossary On
Versions: 1 2 3 4 5 6 7 8 9 10 11 12 13 14 15 16 17 18 19 20 21 22 23 24 25 26 27 28 29 30 31 32 33 34 35 36 37 38 39 40 41 42 43 44 45 46 47 48 49 50
000
ASUS43 KFSD 240202
RWRSD

WEATHER ROUNDUP FOR SOUTH DAKOTA
NATIONAL WEATHER SERVICE SIOUX FALLS SD
900 PM CDT MON APR 23 2018

NOTE: "FAIR" INDICATES FEW OR NO CLOUDS BELOW 12,000 FEET WITH NO
SIGNIFICANT WEATHER AND/OR OBSTRUCTIONS TO VISIBILITY.


SDZ001>005-009-010-012>017-240300-
NORTHWEST AND NORTH CENTRAL SOUTH DAKOTA

CITY           SKY/WX    TMP DP  RH WIND       PRES   REMARKS
BUFFALO          N/A     40  35  83 N32G38    30.12F
FAITH            N/A     50  50 100 W18G29    30.09R
MOBRIDGE       CLOUDY    60  44  55 NE22G31   30.06R
$$

SDZ012>016-024>037-041>051-057-063-072>074-240300-
SOUTHWEST AND SOUTH CENTRAL SOUTH DAKOTA

CITY           SKY/WX    TMP DP  RH WIND       PRES   REMARKS
RAPID CTY ARPT MOCLDY    44  38  79 NW31G40   30.10R
PIERRE         CLOUDY    61  42  49 E8        30.04R
CUSTER         PTCLDY    39  33  79 N7        30.10R
PHILIP         LGT RAIN  53  50  89 NW25      30.03R
PINE RIDGE     RAIN      46  45  96 SW17G28   30.13R FOG
SPEARFISH      LGT RAIN  36  34  93 W21G30    30.24R
WINNER         MOCLDY    59  42  53 SE9       30.06R
$$

SDZ004>011-016>023-039-040-240300-
NORTHEAST SOUTH DAKOTA

CITY           SKY/WX    TMP DP  RH WIND       PRES   REMARKS
ABERDEEN       CLOUDY    61  46  57 NE14G21   30.11R
WATERTOWN      CLOUDY    58  43  57 SE6       30.12R
BROOKINGS      CLOUDY    57  42  57 SE9       30.13R
SISSETON         N/A     57  47  69 NE3       30.12R
$$

SDZ017-020-022-023-036>040-048>070-240300-
SOUTHEAST SOUTH DAKOTA

CITY           SKY/WX    TMP DP  RH WIND       PRES   REMARKS
SIOUX FALLS    MOCLDY    57  41  55 E8        30.12R
HURON          CLOUDY    61  43  51 E8        30.09R
CHAMBERLAIN    CLOUDY    62  45  53 E8        30.07R
MITCHELL       CLOUDY    59  44  57 E7        30.09R
YANKTON        CLOUDY    62  35  36 NE7       30.08R
$$

ABBREVIATIONS USED IN REMARKS
   TC - TEMPERATURE IN CELSIUS
  WCI - WIND CHILL INDEX
   HX - HEAT INDEX
  VSB - VISIBILITY




USA.gov is the U.S. government's official web portal to all federal, state and local government web resources and services.